Location: Unnamed
(51.5169°N, 0.1311°W)
Time: 05:51:52
(UTC+01:00)

Vanguard 1 - Pass Details

Date: 15 August 2024
Orbit: 649 x 3825 km, 34.2° (Epoch: 16 September)

Event Time Altitude Azimuth Distance (km) Brightness Sun altitude
Rises 22:48:04 0° 225° (SW) 3,940 13.1 -18.4°
Reaches altitude 10° 22:50:48 10° 212° (SSW) 3,299 12.5 -18.6°
Maximum altitude 22:57:47 28° 157° (SSE) 2,955 11.9 -19.2°
Enters shadow 23:01:29 24° 132° (SE) 3,556 12.3 -19.5°
Exits shadow 23:03:54 19° 121° (ESE) 4,104 12.7 -19.7°
Drops below altitude 10° 23:08:48 10° 107° (ESE) 5,347 13.4 -20.1°
Sets 23:14:50 0° 99° (E) 6,908 14.0 -20.6°
